Location: Barcelona
(41.3830°N, 2.1830°E)
Time: 22:53:26
(UTC+02:00)

ISS - Pass Details

Date: 22 July 2017
Orbit: 400 x 408 km, 51.6° (Epoch: 24 July)

Event Time Altitude Azimuth Distance (km) Brightness Sun altitude
Rises 04:18:48 0° 310° (NW) 2,315 0.1 -20.2°
Reaches altitude 10° 04:21:12 10° 326° (NNW) 1,456 -0.8 -20.0°
Maximum altitude 04:23:49 22° 20° (NNE) 949 -1.1 -19.7°
Drops below altitude 10° 04:26:25 10° 73° (ENE) 1,455 -0.3 -19.4°
Sets 04:28:49 0° 89° (E) 2,314 0.6 -19.1°
